This is the latest recevied weather packets stored in our database for station/object WA9SDJ-13. If no packets are shown the sender has not sent any weather packets the latest 10 day(s).
| Time | Temp. | Humidity | Pressure | Rain* | Wind** | Luminosity | Snow |
|---|---|---|---|---|---|---|---|
| 1778154806 | 3.33° C | 88% | 1015.7 hPa | 0 mm | - | 46 W/m² | - |
| 1778154746 | 3.33° C | 88% | 1015.8 hPa | 0 mm | - | 41 W/m² | - |
| 1778154686 | 3.33° C | 88% | 1015.8 hPa | 0 mm | - | 32 W/m² | - |
| 1778154626 | 3.33° C | 88% | 1015.8 hPa | 0 mm | - | 30 W/m² | - |
| 1778154566 | 3.33° C | 88% | 1015.8 hPa | 0 mm | - | 30 W/m² | - |
| 1778154506 | 3.33° C | 88% | 1015.8 hPa | 0 mm | - | 28 W/m² | - |
| 1778154446 | 3.33° C | 88% | 1015.8 hPa | 0 mm | - | 26 W/m² | - |
| 1778154386 | 3.33° C | 88% | 1015.8 hPa | 0 mm | - | 26 W/m² | - |
| 1778154326 | 3.33° C | 88% | 1015.7 hPa | 0 mm | - | 23 W/m² | - |
| 1778154266 | 3.33° C | 88% | 1015.8 hPa | 0 mm | - | 25 W/m² | - |
| 1778154206 | 3.33° C | 88% | 1015.8 hPa | 0 mm | - | 25 W/m² | - |
| 1778154146 | 3.33° C | 88% | 1015.8 hPa | 0 mm | - | 26 W/m² | - |
| 1778154086 | 3.33° C | 88% | 1015.8 hPa | 0 mm | - | 26 W/m² | - |
| 1778154026 | 3.33° C | 88% | 1015.8 hPa | 0 mm | - | 26 W/m² | - |
| 1778153965 | 3.33° C | 88% | 1015.8 hPa | 0 mm | - | 26 W/m² | - |
| 1778153905 | 3.33° C | 88% | 1015.6 hPa | 0 mm | - | 28 W/m² | - |
| 1778153845 | 3.33° C | 88% | 1015.7 hPa | 0 mm | - | 30 W/m² | - |
| 1778153786 | 3.33° C | 88% | 1015.7 hPa | 0 mm | - | 30 W/m² | - |
| 1778153725 | 3.33° C | 88% | 1015.7 hPa | 0 mm | - | 32 W/m² | - |
| 1778153666 | 3.33° C | 88% | 1015.6 hPa | 0 mm | - | 33 W/m² | - |
| 1778153606 | 3.33° C | 88% | 1015.6 hPa | 0 mm | - | 33 W/m² | - |
| 1778153546 | 3.33° C | 88% | 1015.6 hPa | 0 mm | - | 32 W/m² | - |
| 1778153486 | 3.33° C | 88% | 1015.7 hPa | 0 mm | - | 30 W/m² | - |
| 1778153426 | 3.33° C | 88% | 1015.6 hPa | 0 mm | - | 28 W/m² | - |
| 1778153366 | 3.33° C | 88% | 1015.6 hPa | 0 mm | - | 26 W/m² | - |
* Rain latest hour (hover to see other rain measurements)
** Current wind speed in m/s (hover to see current wind gust speed)